This is the latest recevied weather packets stored in our database for station/object NY3Q. If no packets are shown the sender has not sent any weather packets the latest 10 day(s).
| Time | Temp. | Humidity | Pressure | Rain* | Wind** | Luminosity | Snow |
|---|---|---|---|---|---|---|---|
| 1777944739 | 19.44° C | 69% | 1017.2 hPa | 0 mm | - | 0 W/m² | - |
| 1777944438 | 19.44° C | 68% | 1017.1 hPa | 0 mm | - | 0 W/m² | - |
| 1777944135 | 20° C | 68% | 1017.2 hPa | 0 mm | - | 0 W/m² | - |
| 1777943830 | 19.44° C | 69% | 1016.9 hPa | 0 mm | - | 0 W/m² | - |
| 1777943528 | 19.44° C | 68% | 1016.9 hPa | 0 mm | - | 0 W/m² | - |
| 1777943223 | 19.44° C | 68% | 1017 hPa | 0 mm | - | 0 W/m² | - |
| 1777942920 | 19.44° C | 68% | 1016.8 hPa | 0 mm | - | 0 W/m² | - |
| 1777942616 | 20° C | 68% | 1016.9 hPa | 0 mm | - | 0 W/m² | - |
| 1777942313 | 20° C | 68% | 1017 hPa | 0 mm | - | 0 W/m² | - |
| 1777942010 | 20° C | 68% | 1016.8 hPa | 0 mm | - | 0 W/m² | - |
| 1777941706 | 20° C | 67% | 1016.9 hPa | 0 mm | - | 0 W/m² | - |
| 1777941404 | 20° C | 66% | 1016.7 hPa | 0 mm | - | 0 W/m² | - |
| 1777941102 | 20.56° C | 66% | 1016.7 hPa | 0 mm | - | 0 W/m² | - |
| 1777940797 | 20° C | 66% | 1016.6 hPa | 0 mm | - | 0 W/m² | - |
| 1777940496 | 20.56° C | 66% | 1016.5 hPa | 0 mm | - | 0 W/m² | - |
| 1777940193 | 20.56° C | 66% | 1016.9 hPa | 0 mm | - | 0 W/m² | - |
| 1777939890 | 20.56° C | 65% | 1016.5 hPa | 0 mm | - | 1 W/m² | - |
| 1777939587 | 21.11° C | 64% | 1016.8 hPa | 0 mm | - | 2 W/m² | - |
| 1777939285 | 21.11° C | 64% | 1016.8 hPa | 0 mm | - | 4 W/m² | - |
| 1777938981 | 21.67° C | 63% | 1016.7 hPa | 0 mm | - | 6 W/m² | - |
| 1777938678 | 21.67° C | 62% | 1016.3 hPa | 0 mm | - | 9 W/m² | - |
| 1777938375 | 21.67° C | 61% | 1016.4 hPa | 0 mm | - | 12 W/m² | - |
| 1777938072 | 21.67° C | 61% | 1016.3 hPa | 0 mm | - | 14 W/m² | - |
| 1777937767 | 22.22° C | 60% | 1016.5 hPa | 0 mm | - | 17 W/m² | - |
| 1777937464 | 22.22° C | 60% | 1016.3 hPa | 0 mm | - | 19 W/m² | - |
* Rain latest hour (hover to see other rain measurements)
** Current wind speed in m/s (hover to see current wind gust speed)